Location: Beranovka
(49.9415°N, 12.8435°E)
Time: 00:10:38
(UTC+00:00)

Cosmos 1842 - Pass Details

Date: 10 August 2020
Orbit: 520 x 538 km, 82.5° (Epoch: 23 September)

Event Time Altitude Azimuth Distance (km) Brightness Sun altitude
Rises 22:51:18 0° 350° (N) 2,700 8.3 -24.7°
Reaches altitude 10° 22:53:28 10° 352° (N) 1,801 7.0 -24.7°
Enters shadow 22:56:49 61° 9° (N) 611 3.7 -24.7°
